Location: Altavilla Irpina
(41.0000°N, 14.7833°E)
Time: 00:48:47
(UTC+00:00)

Cosmos 1812 Rocket - Pass Details

Date: 19 May 2025
Orbit: 601 x 624 km, 82.5° (Epoch: 22 June)

Event Time Altitude Azimuth Distance (km) Brightness Sun altitude
Exits shadow 20:49:01 55° 209° (SSW) 729 3.7 -22.1°
Maximum altitude 20:49:54 76° 277° (W) 624 3.5 -22.2°
Drops below altitude 10° 20:54:13 10° 5° (N) 1,954 6.8 -22.7°
Sets 20:56:27 0° 7° (N) 2,863 7.8 -22.9°
